Location: Arbon
(43.0005°N, 0.7472°E)
Time: 01:09:17
(UTC+00:00)

S-56A Canister/Altair - Pass Details

Date: 12 December 2020
Orbit: 633 x 2499 km, 38.9° (Epoch: 19 January)

Event Time Altitude Azimuth Distance (km) Brightness Sun altitude
Rises 18:14:14 0° 271° (W) 6,162 13.6 -19.6°
Reaches altitude 10° 18:18:26 10° 269° (W) 5,081 12.8 -20.4°
Maximum altitude 18:32:41 71° 190° (S) 2,110 9.7 -22.9°
Enters shadow 18:39:11 29° 114° (ESE) 2,799 9.9 -24.1°
